Location: Brachbach
(49.1847°N, 9.7240°E)
Time: 12:39:41
(UTC+00:00)

Nimbus 7 Rocket - Pass Details

Date: 15 August 2024
Orbit: 921 x 965 km, 99.4° (Epoch: 14 September)

Event Time Altitude Azimuth Distance (km) Brightness Sun altitude
Rises 23:45:00 0° 19° (NNE) 3,588 8.7 -27.0°
Reaches altitude 10° 23:47:32 10° 25° (NNE) 2,636 7.7 -27.0°
Maximum altitude 23:53:13 50° 100° (E) 1,169 4.8 -26.9°
Enters shadow 23:53:47 48° 118° (ESE) 1,191 4.7 -26.9°
